| time (UTC) | temp C | wind direction | speed KPH | gust KPH | rain 1hr cm | rain 24hr cm | rain mn cm | humidity % | barometer mb |
| 20260510071549 | 18 | 157 | 4.8 | 14.5 | 0.00 | 0.00 | 0.00 | 79 | 1027.9 |
| 20260510070005 | 19 | 142 | 4.8 | 14.5 | 0.00 | 0.00 | 0.00 | 80 | 1027.7 |
| 20260510064556 | 19 | 188 | 3.2 | 12.9 | 0.00 | 0.00 | 0.00 | 79 | 1027.5 |
| 20260510063039 | 19 | 153 | 8.0 | 17.7 | 0.00 | 0.00 | 0.00 | 78 | 1027.4 |
| 20260510061514 | 20 | 153 | 4.8 | 16.1 | 0.00 | 0.00 | 0.00 | 78 | 1027.2 |
| 20260510060042 | 20 | 146 | 8.0 | 16.1 | 0.00 | 0.00 | 0.00 | 74 | 1027.0 |
| 20260510054523 | 20 | 187 | 11.3 | 19.3 | 0.00 | 0.00 | 0.00 | 71 | 1026.8 |
| 20260510053120 | 21 | 184 | 4.8 | 16.1 | 0.00 | 0.00 | 0.00 | 72 | 1026.7 |
| 20260510053002 | 21 | 124 | 6.4 | 16.1 | 0.00 | 0.00 | 0.00 | 72 | 1026.7 |
| 20260510051548 | 21 | 177 | 8.0 | 17.7 | 0.00 | 0.00 | 0.00 | 72 | 1026.6 |
| 20260510050006 | 21 | 157 | 8.0 | 17.7 | 0.00 | 0.00 | 0.00 | 71 | 1026.4 |
| 20260510044604 | 21 | 124 | 4.8 | 17.7 | 0.00 | 0.00 | 0.00 | 70 | 1026.4 |
| 20260510043042 | 21 | 119 | 9.7 | 16.1 | 0.00 | 0.00 | 0.00 | 70 | 1026.4 |
| 20260510041520 | 21 | 140 | 9.7 | 19.3 | 0.00 | 0.00 | 0.00 | 68 | 1026.4 |
| 20260510040044 | 22 | 110 | 8.0 | 16.1 | 0.00 | 0.00 | 0.00 | 65 | 1026.4 |
| 20260510034520 | 21 | 127 | 6.4 | 16.1 | 0.00 | 0.00 | 0.00 | 65 | 1026.6 |
| 20260510033112 | 21 | 126 | 6.4 | 14.5 | 0.00 | 0.00 | 0.00 | 67 | 1026.4 |
| 20260510031542 | 21 | 129 | 3.2 | 8.0 | 0.00 | 0.00 | 0.00 | 64 | 1026.6 |
| 20260510030015 | 22 | 121 | 1.6 | 8.0 | 0.00 | 0.00 | 0.00 | 61 | 1026.6 |
| 20260510024554 | 22 | 126 | 1.6 | 12.9 | 0.00 | 0.00 | 0.00 | 61 | 1026.8 |
| 20260510023032 | 22 | 142 | 1.6 | 8.0 | 0.00 | 0.00 | 0.00 | 60 | 1026.9 |
| 20260510021514 | 22 | 130 | 3.2 | 8.0 | 0.00 | 0.00 | 0.00 | 61 | 1027.1 |
| 20260510020032 | 22 | 150 | 1.6 | 6.4 | 0.00 | 0.00 | 0.00 | 61 | 1027.3 |
| 20260510014510 | 22 | 126 | 3.2 | 11.3 | 0.00 | 0.00 | 0.00 | 61 | 1027.4 |
| 20260510013044 | 21 | 335 | 1.6 | 9.7 | 0.00 | 0.00 | 0.00 | 63 | 1027.7 |
| 20260510011528 | 21 | 193 | 1.6 | 6.4 | 0.00 | 0.00 | 0.00 | 64 | 1027.9 |
| 20260510010044 | 20 | 240 | 3.2 | 9.7 | 0.00 | 0.00 | 0.00 | 65 | 1028.0 |
| 20260510004523 | 20 | 216 | 1.6 | 6.4 | 0.00 | 0.00 | 0.00 | 66 | 1028.2 |
| 20260510003004 | 20 | 200 | 1.6 | 4.8 | 0.00 | 0.00 | 0.00 | 67 | 1028.2 |
| 20260510001538 | 19 | 146 | 1.6 | 9.7 | 0.00 | 0.00 | 0.00 | 68 | 1028.1 |
| 20260510000100 | 18 | 271 | 1.6 | 6.4 | 0.00 | 0.00 | 0.00 | 70 | 1027.9 |
| 20260509234542 | 17 | 213 | 1.6 | 6.4 | 0.00 | 0.00 | 0.00 | 72 | 1027.8 |
| 20260509233014 | 17 | 261 | 1.6 | 6.4 | 0.00 | 0.00 | 0.00 | 75 | 1027.7 |
| 20260509231554 | 16 | 273 | 1.6 | 6.4 | 0.00 | 0.00 | 0.00 | 77 | 1027.6 |
| 20260509230017 | 15 | 261 | 1.6 | 4.8 | 0.00 | 0.00 | 0.00 | 79 | 1027.6 |
| 20260509224549 | 15 | 305 | 1.6 | 6.4 | 0.00 | 0.00 | 0.00 | 81 | 1027.5 |
| 20260509223022 | 14 | 315 | 1.6 | 4.8 | 0.00 | 0.00 | 0.00 | 83 | 1027.4 |
| 20260509221600 | 13 | 329 | 0.0 | 6.4 | 0.00 | 0.00 | 0.00 | 84 | 1027.4 |
| 20260509221502 | 13 | 342 | 1.6 | 6.4 | 0.00 | 0.00 | 0.00 | 84 | 1027.4 |
| 20260509220014 | 13 | 5 | 1.6 | 6.4 | 0.00 | 0.00 | 0.00 | 88 | 1027.3 |
| 20260509214551 | 12 | 22 | 0.0 | 4.8 | 0.00 | 0.00 | 0.00 | 92 | 1027.2 |
| 20260509213031 | 11 | 29 | 0.0 | 3.2 | 0.00 | 0.00 | 0.00 | 94 | 1027.0 |
| 20260509211506 | 10 | 255 | 0.0 | 3.2 | 0.00 | 0.00 | 0.00 | 94 | 1026.8 |
| 20260509210026 | 9 | 355 | 0.0 | 3.2 | 0.00 | 0.00 | 0.00 | 94 | 1026.5 |
| 20260509204656 | 9 | 355 | 0.0 | 3.2 | 0.00 | 0.00 | 0.00 | 93 | 1026.3 |
| 20260509123101 | 11 | 121 | 0.0 | 0.0 | 0.00 | 0.00 | 0.00 | 91 | 1024.7 |
| 20260509121535 | 11 | 121 | 0.0 | 0.0 | 0.00 | 0.00 | 0.00 | 90 | 1024.7 |
| 20260509120106 | 11 | 121 | 0.0 | 1.6 | 0.00 | 0.00 | 0.00 | 90 | 1024.8 |
| 20260509114541 | 11 | 121 | 0.0 | 1.6 | 0.00 | 0.00 | 0.00 | 90 | 1024.8 |
| 20260509113025 | 11 | 121 | 0.0 | 1.6 | 0.00 | 0.00 | 0.00 | 89 | 1024.8 |
| 20260509111511 | 11 | 121 | 0.0 | 0.0 | 0.00 | 0.00 | 0.00 | 89 | 1024.7 |
| 20260509110033 | 12 | 121 | 0.0 | 1.6 | 0.00 | 0.00 | 0.00 | 88 | 1024.6 |
| 20260509104529 | 12 | 121 | 0.0 | 0.0 | 0.00 | 0.00 | 0.00 | 87 | 1024.6 |
| 20260509103054 | 12 | 121 | 0.0 | 1.6 | 0.00 | 0.00 | 0.00 | 87 | 1024.6 |
| 20260509101535 | 12 | 121 | 0.0 | 1.6 | 0.00 | 0.00 | 0.00 | 86 | 1024.5 |
| 20260509100103 | 13 | 121 | 0.0 | 1.6 | 0.00 | 0.00 | 0.00 | 85 | 1024.4 |
| 20260509094540 | 13 | 121 | 0.0 | 1.6 | 0.00 | 0.00 | 0.00 | 84 | 1024.3 |
| 20260509093017 | 13 | 121 | 0.0 | 1.6 | 0.00 | 0.00 | 0.00 | 83 | 1024.2 |
| 20260509091502 | 13 | 360 | 0.0 | 1.6 | 0.00 | 0.00 | 0.00 | 82 | 1024.2 |
| 20260509090022 | 14 | 360 | 0.0 | 1.6 | 0.00 | 0.00 | 0.00 | 81 | 1024.0 |
| 20260509084603 | 15 | 65 | 1.6 | 3.2 | 0.00 | 0.00 | 0.00 | 79 | 1023.8 |
| 20260509084502 | 15 | 65 | 0.0 | 3.2 | 0.00 | 0.00 | 0.00 | 79 | 1023.8 |
| 20260509083044 | 15 | 132 | 0.0 | 1.6 | 0.00 | 0.00 | 0.00 | 77 | 1023.7 |
| 20260509081539 | 16 | 132 | 0.0 | 1.6 | 0.00 | 0.00 | 0.00 | 75 | 1023.6 |
| 20260509080056 | 17 | 151 | 0.0 | 3.2 | 0.00 | 0.00 | 0.00 | 74 | 1023.4 |
| 20260509074522 | 17 | 136 | 0.0 | 1.6 | 0.00 | 0.00 | 0.00 | 73 | 1023.2 |
| 20260509073006 | 17 | 120 | 0.0 | 4.8 | 0.00 | 0.00 | 0.00 | 71 | 1023.0 |